Location: Caltech
(34.1382°N, 118.1253°W)
Time: 17:38:43
(UTC-07:00)

SL-08 RB Rocket - Visible Passes

Search period start: 25 July 2016 00:00
Search period end: 04 August 2016 00:00
Orbit: 649 x 685 km, 98.0° (Epoch: 24 July)

Date Brightness Start Highest point End Pass type
(mag) Time Alt. Az. Time Alt. Az. Time Alt. Az.
25 Jul 5.3 21:29:16 19° E 21:30:03 20° ENE 21:33:21 10° NNE visible
25 Jul 5.2 23:07:24 32° W 23:07:24 32° W 23:10:58 10° NNW visible
26 Jul 4.2 22:01:25 43° ENE 22:01:32 43° ENE 22:05:55 10° N visible
26 Jul 6.2 23:39:34 14° W 23:39:34 14° W 23:41:18 10° WNW visible
27 Jul 3.8 22:33:35 73° NW 22:33:35 73° NW 22:37:50 10° NNW visible
28 Jul 5.3 21:27:35 18° E 21:28:15 19° ENE 21:31:29 10° NNE visible
28 Jul 5.2 23:05:44 32° WNW 23:05:44 32° WNW 23:09:13 10° NNW visible
29 Jul 4.3 21:59:46 41° ENE 21:59:46 41° ENE 22:04:06 10° N visible
29 Jul 6.2 23:37:54 15° WNW 23:37:54 15° WNW 23:39:40 10° WNW visible
30 Jul 3.9 22:31:55 70° NNW 22:31:55 70° NNW 22:36:03 10° NNW visible
31 Jul 5.4 21:25:57 18° ENE 21:26:28 18° ENE 21:29:36 10° NNE visible
31 Jul 5.2 23:04:05 33° WNW 23:04:05 33° WNW 23:07:27 10° NNW visible
01 Aug 4.4 21:58:07 39° ENE 21:58:07 39° ENE 22:02:16 10° N visible
01 Aug 6.3 23:36:16 15° WNW 23:36:16 15° WNW 23:37:59 10° NW visible
02 Aug 4.0 22:30:17 64° NNW 22:30:17 64° NNW 22:34:15 10° NNW visible
03 Aug 5.4 21:24:19 18° ENE 21:24:39 18° ENE 21:27:44 10° NNE visible
03 Aug 5.2 23:02:28 33° WNW 23:02:28 33° WNW 23:05:42 10° NNW visible
